Theta_e
342 343 343 342 341 341 340 339 339 337 336 335 335 334 334 334 336 339 341 345 349 351 352 355 358 357 355 353 352 353 355 353 352 350 349 348 348 349 348 348 349 348 347
343 342 342 341 340 340 340 339 337 335 333 333 332 332 332 334 338 343 343 345 347 348 353 354 357 359 358 354 352 352 353 353 353 351 349 348 347 348 348 348 349 348 348
344 344 341 340 341 340 339 338 336 335 332 332 332 333 335 337 340 343 347 347 346 346 352 354 356 358 359 358 357 354 352 352 353 351 350 348 347 347 348 348 348 349 348
347 344 342 341 340 338 337 336 335 334 333 332 333 333 335 338 341 343 345 347 347 347 348 353 353 355 357 359 359 358 354 351 351 350 350 349 348 347 347 347 347 348 348
348 345 343 343 340 337 336 336 334 334 334 334 333 335 335 337 339 340 342 344 345 346 347 347 349 351 353 355 358 359 357 353 350 350 350 350 349 348 347 347 346 346 347
345 346 345 342 339 338 337 336 336 335 334 336 335 335 335 337 337 337 338 340 342 344 346 347 348 348 349 353 355 357 359 357 353 350 349 348 348 348 347 347 346 346 345
341 342 342 343 339 336 338 338 338 336 336 334 333 335 334 335 335 336 338 339 340 342 344 344 345 345 346 347 350 353 357 359 358 353 348 346 347 348 348 347 347 345 345
341 341 340 341 341 339 338 338 335 333 334 334 330 327 325 330 334 337 338 339 339 339 339 340 343 345 345 345 346 348 353 356 359 357 350 346 346 347 348 347 346 345 344
342 342 341 340 341 341 340 338 337 335 332 333 333 331 324 321 325 332 335 332 333 334 335 336 338 340 344 347 346 347 348 351 356 358 356 349 346 346 346 346 345 344 344
334 336 338 340 339 340 339 338 339 335 332 328 330 335 335 333 324 322 329 330 331 330 330 332 335 336 340 345 346 347 343 345 351 354 354 348 346 346 345 344 343 342 342
329 332 333 334 334 335 334 334 335 335 332 329 327 331 332 332 330 326 322 325 329 330 331 332 334 333 338 342 343 342 339 339 341 344 346 347 348 348 345 345 345 344 343
325 328 330 331 331 330 329 330 332 332 333 334 335 333 332 329 328 326 324 325 324 329 329 330 331 330 334 339 340 338 334 333 332 333 336 340 343 345 345 345 344 344 342
320 323 327 328 328 330 330 329 328 328 328 328 329 329 330 330 332 329 325 322 321 325 325 327 326 329 332 336 337 335 336 330 327 326 328 332 335 336 338 340 341 340 338
319 323 324 325 326 327 327 328 329 330 330 328 328 330 331 328 326 326 324 322 317 318 319 322 324 326 328 330 332 332 335 329 327 323 321 325 328 330 333 335 335 335 335
319 323 322 322 323 324 325 326 325 325 328 328 328 329 328 329 331 329 327 324 319 316 318 322 321 324 325 327 328 333 332 330 328 324 323 322 324 326 326 327 328 329 331
317 321 319 320 319 321 322 321 320 322 323 325 328 328 328 328 328 328 328 326 323 320 317 321 321 324 326 328 332 331 330 327 324 323 323 322 321 321 322 323 323 324 326
315 318 318 317 317 318 318 317 317 318 319 321 323 324 324 325 325 325 324 324 322 321 317 321 322 326 326 326 327 332 332 332 330 321 323 322 319 319 319 320 320 321 322
312 314 316 317 316 317 317 315 314 317 318 319 320 321 321 323 323 324 323 321 320 322 320 318 322 323 323 327 328 328 328 331 331 326 322 321 319 317 317 316 316 317 317
309 311 312 313 315 316 317 315 315 316 318 319 320 320 321 322 320 322 320 319 320 322 320 320 319 321 323 323 323 323 324 326 327 327 321 319 318 316 316 315 314 313 311
307 308 309 310 311 314 316 315 315 316 317 317 319 321 321 321 319 319 319 319 320 320 321 319 318 320 320 322 323 323 323 326 327 329 324 323 320 317 315 314 314 315 311
306 307 307 309 310 312 313 314 315 316 316 315 317 319 321 322 320 319 320 318 320 320 321 318 317 320 319 318 321 322 322 322 322 323 326 329 328 326 325 316 320 317 314
304 304 305 306 307 309 307 307 312 314 315 314 314 315 318 318 318 314 313 314 318 319 320 320 320 318 315 316 316 319 318 317 312 320 322 320 323 323 323 324 318 313 308
302 302 303 304 304 306 302 302 305 311 311 310 311 313 314 317 317 320 313 311 310 310 314 322 320 321 314 313 315 316 317 316 315 318 321 320 322 325 330 329 308 309 307
298 299 300 301 302 303 301 299 301 308 308 308 309 309 310 313 316 318 319 318 316 318 318 321 323 323 317 317 320 319 319 316 316 318 321 318 323 325 328 328 308 308 305
296 297 298 298 298 300 299 298 300 304 304 304 307 308 309 311 307 302 316 317 318 318 313 309 309 307 305 303 311 317 315 315 313 316 320 322 323 323 323 325 322 305 303
294 296 296 296 298 302 298 297 298 303 303 305 307 309 305 309 303 300 311 315 315 318 317 313 312 306 307 307 305 321 316 315 315 315 320 322 321 321 318 322 327 324 320
Wind_Speed
3 2 3 3 3 2 3 4 4 3 3 5 5 5 8 6 5 4 3 9 10 11 14 13 13 12 12 12 13 11 12 13 13 13 13 11 8 9 11 11 10 9 9
4 5 4 5 4 4 3 4 4 3 5 4 5 5 8 5 6 5 4 5 9 10 9 11 12 11 13 13 15 11 12 13 14 16 13 13 15 13 14 12 11 11 11
6 6 5 5 5 5 5 4 3 3 5 4 7 6 6 6 7 7 6 4 5 8 9 10 12 13 14 13 15 14 14 14 14 13 13 14 12 13 14 14 12 13 12
6 5 5 5 4 3 4 3 3 4 5 5 5 4 5 5 7 8 7 5 4 4 6 11 12 13 13 14 15 16 14 15 15 15 16 16 14 13 14 14 12 13 13
8 8 6 5 5 4 5 4 3 4 5 5 5 6 6 6 7 6 8 6 5 5 4 7 13 13 13 14 16 17 17 16 14 15 17 17 15 16 17 17 15 13 13
8 8 6 6 5 4 5 4 6 3 6 6 4 6 4 5 5 6 8 6 4 4 5 6 5 6 12 13 16 18 18 18 16 16 17 16 16 17 19 18 18 15 13
7 5 5 5 5 6 8 9 5 5 3 3 1 5 4 7 8 7 6 5 4 3 4 4 4 2 4 12 14 16 18 19 18 18 16 17 19 20 17 16 15 15 13
5 5 6 5 5 5 6 6 5 2 3 6 4 3 5 6 3 4 3 1 4 2 3 3 4 5 5 5 9 14 18 19 19 18 18 19 20 17 17 18 18 15 14
4 4 4 4 4 4 5 6 6 9 7 4 8 5 3 7 2 2 2 2 3 3 4 3 4 4 5 5 7 10 15 17 18 18 21 18 17 19 19 16 13 11 11
5 4 3 3 4 3 5 5 5 7 4 8 1 7 7 2 7 9 3 5 5 6 6 4 6 6 5 5 9 11 10 14 17 19 19 18 21 19 18 18 15 13 12
4 4 4 3 1 1 4 5 7 7 4 5 6 4 6 6 7 9 8 5 5 8 6 7 6 6 7 5 7 7 9 12 11 13 17 19 20 22 20 17 15 13 10
2 2 3 3 2 2 3 4 5 7 8 7 7 6 8 5 6 4 6 7 9 6 7 10 7 6 7 6 8 8 10 10 8 15 14 11 16 16 14 16 14 14 13
2 4 4 3 3 3 4 4 4 6 7 6 9 9 9 11 11 8 7 7 7 4 4 4 6 6 5 5 7 12 13 15 10 14 13 13 12 12 14 14 15 16 14
4 5 5 5 5 4 3 3 4 6 7 7 10 10 9 9 6 6 7 6 4 5 2 7 1 4 5 5 11 16 9 6 8 14 14 14 17 16 14 15 16 16 14
4 6 6 6 6 6 5 3 3 4 5 7 7 8 8 9 9 10 9 10 11 6 5 4 4 7 7 7 11 9 10 11 15 15 14 13 12 9 8 7 8 10 10
6 7 8 8 7 6 6 5 4 5 5 5 5 8 7 8 9 10 9 8 7 10 8 4 5 4 5 6 6 8 9 10 9 12 13 12 10 10 11 12 12 12 12
6 7 8 8 8 8 7 6 7 6 6 7 7 8 9 10 8 8 7 7 8 8 9 9 4 4 6 9 10 6 7 6 4 10 14 11 12 14 15 13 12 13 13
5 7 8 8 8 8 7 8 8 7 7 7 8 7 10 8 10 10 8 10 8 9 9 13 7 4 7 7 8 7 4 3 5 7 13 13 14 15 15 14 12 13 13
6 7 7 9 10 9 9 10 10 9 9 8 9 8 9 10 11 9 8 8 8 8 9 8 8 3 4 3 4 3 3 5 4 7 11 13 13 9 7 6 9 11 11
7 8 9 11 12 12 12 12 11 10 10 9 9 9 10 10 11 11 9 11 10 9 10 7 7 7 3 3 1 2 3 1 3 3 2 3 5 5 6 9 10 9 8
12 11 11 11 11 12 10 12 13 12 11 10 9 9 9 11 11 12 8 9 11 10 9 9 8 5 4 4 5 3 2 2 1 0 2 2 1 1 4 7 7 9 10
13 13 14 14 14 10 12 16 14 10 10 10 9 9 8 10 10 14 17 16 13 11 11 8 7 6 5 3 3 3 3 2 3 1 0 1 0 4 4 4 6 7 6
14 16 16 15 17 15 16 18 18 11 10 9 9 9 10 8 9 11 13 18 16 16 15 12 11 9 5 7 6 4 4 3 3 2 1 1 0 3 1 1 3 5 5
17 14 13 15 16 15 18 19 19 13 10 10 10 12 12 13 10 10 10 11 12 12 13 9 11 9 6 8 8 5 5 5 2 1 1 1 1 2 2 2 7 5 0
11 14 17 18 21 20 19 19 16 10 9 10 10 12 14 15 12 15 12 12 12 11 10 13 11 7 9 9 9 8 5 3 2 1 4 2 0 2 2 2 2 6 7
16 13 15 17 19 15 13 16 16 8 7 7 10 12 16 17 14 14 12 12 13 12 11 10 6 3 10 6 8 4 6 4 3 2 3 3 2 1 2 1 1 3 2
Wind_Direction
187 181 223 224 220 219 225 229 242 247 255 257 252 255 272 278 285 264 271 289 275 257 260 248 232 224 231 232 232 219 220 218 219 213 214 197 224 233 232 229 221 229 228
183 196 211 222 224 209 217 234 239 240 256 260 272 254 267 277 273 279 254 262 274 271 257 230 237 228 232 221 233 219 221 219 220 220 217 212 186 216 222 225 227 219 226
193 208 208 226 228 208 217 225 241 231 259 261 259 257 260 260 260 260 251 245 263 265 252 236 227 231 231 230 231 221 214 217 219 223 215 225 206 204 222 216 221 224 220
188 204 217 225 211 209 213 215 221 257 260 253 273 265 259 250 263 260 262 259 245 262 253 243 235 238 233 236 233 228 221 223 214 215 211 220 209 207 221 219 214 229 223
187 209 218 227 195 204 211 219 215 222 256 260 256 267 261 257 255 266 263 256 243 238 247 238 244 237 238 236 238 235 225 226 219 217 220 214 214 209 214 213 204 212 229
210 207 214 219 183 199 207 202 221 214 250 275 296 286 280 274 262 250 260 258 241 239 250 242 239 239 230 240 241 240 237 231 221 215 219 219 215 217 215 217 196 198 213
218 217 221 235 197 204 214 209 192 187 235 136 277 291 283 257 257 251 250 257 292 301 316 299 271 253 265 254 247 244 240 238 228 219 214 212 217 216 222 215 222 185 204
209 206 207 222 217 219 233 226 182 169 219 166 159 135 299 306 283 293 319 110 93 81 53 30 329 292 243 240 251 248 242 244 235 225 216 214 218 218 213 215 216 204 191
167 202 217 218 225 217 241 219 201 186 212 217 162 175 171 225 17 246 82 190 202 202 173 228 236 245 268 247 244 249 245 243 235 231 223 217 206 203 210 207 197 178 166
110 107 134 177 215 216 237 229 233 250 263 256 210 206 240 213 243 271 217 223 229 235 226 216 249 245 264 266 233 232 231 237 239 231 218 198 201 209 202 202 196 189 168
86 81 74 69 75 203 234 238 261 262 239 241 234 232 210 211 223 236 249 246 239 227 224 216 223 224 231 238 247 228 234 259 234 232 224 220 219 225 229 226 209 199 197
88 89 123 134 179 231 259 254 240 239 250 243 247 225 224 206 203 206 226 239 249 272 262 276 278 257 251 222 236 218 218 222 242 257 243 233 240 241 235 232 225 222 226
182 193 174 173 188 210 236 243 257 255 244 234 238 246 247 243 237 225 224 248 250 258 277 256 256 228 218 209 211 215 218 208 204 246 246 234 231 229 244 246 220 208 209
185 182 183 196 206 217 229 219 225 244 253 251 254 245 245 232 222 231 230 219 241 236 256 246 223 213 200 214 221 223 241 227 217 237 232 228 222 229 232 227 216 214 201
199 193 192 198 207 207 220 234 251 259 221 262 256 253 252 256 246 238 229 221 224 237 243 254 233 206 227 230 229 205 214 207 216 226 230 222 226 222 233 226 227 251 250
217 202 201 206 204 207 207 211 241 262 272 265 250 262 253 257 256 245 229 224 222 230 250 229 237 243 222 242 254 218 210 194 195 229 229 222 217 233 244 242 246 244 251
277 257 233 213 212 211 210 209 221 238 241 264 270 255 264 264 262 257 241 230 223 213 236 265 250 247 252 260 258 218 211 207 190 211 232 229 229 238 247 245 247 255 252
254 247 255 255 243 221 219 217 228 227 229 242 258 260 269 269 256 254 243 234 221 209 220 241 258 254 238 242 249 227 229 211 198 200 221 226 233 232 223 219 222 226 235
261 263 250 250 254 252 241 229 230 229 228 227 242 238 251 267 269 255 236 235 224 225 220 226 249 232 258 227 210 172 186 225 224 226 220 223 226 240 232 229 217 207 216
253 253 249 250 248 246 242 241 240 232 236 231 231 232 235 241 263 258 230 231 222 219 216 219 238 246 238 210 219 167 188 168 202 186 194 190 195 200 220 225 233 236 246
264 253 254 253 248 242 238 237 239 242 238 239 239 234 239 238 244 239 234 225 225 219 217 217 226 226 199 191 195 154 164 150 232 172 233 157 146 236 206 214 240 243 239
258 259 259 253 251 245 235 227 229 237 242 247 256 260 246 246 243 234 226 226 215 217 220 208 212 206 211 191 152 177 122 163 208 208 169 294 19 275 263 248 235 252 243
266 260 257 253 251 246 234 230 231 233 235 243 246 256 266 255 232 237 234 235 232 227 229 218 208 201 186 206 136 154 158 162 176 191 157 303 87 284 250 275 344 292 259
269 269 271 269 261 254 236 230 227 235 237 243 247 252 257 260 234 224 235 240 232 224 221 212 211 215 212 167 175 152 142 120 91 325 147 228 154 252 299 4 41 38 270
277 271 263 266 259 259 234 227 223 227 237 247 251 252 253 255 231 211 231 241 242 234 216 207 218 216 185 171 149 131 128 125 128 186 183 203 178 300 326 337 86 60 41
275 265 271 271 279 270 232 225 221 225 229 241 248 253 247 243 231 202 212 226 241 230 188 183 187 142 110 164 150 117 139 135 136 195 187 176 140 320 327 323 328 21 2